Location: Lecco
(45.8566°N, 9.3977°E)
Time: 08:09:48
(UTC+02:00)

Altair - Pass Details

Date: 15 August 2020
Orbit: 1501 x 1682 km, 47.2° (Epoch: 25 September)

Event Time Altitude Azimuth Distance (km) Brightness Sun altitude
Rises 00:52:45 0° 193° (SSW) 4,862 - -29.7°
Reaches altitude 10° 00:56:37 10° 182° (S) 3,853 - -29.8°
Maximum altitude 01:04:05 25° 131° (SE) 2,778 - -29.9°
Exits shadow 01:06:31 23° 110° (ESE) 2,895 8.7 -30.0°
Drops below altitude 10° 01:11:21 10° 81° (E) 3,753 9.6 -30.1°
Sets 01:15:01 0° 69° (ENE) 4,713 10.3 -30.1°
